Temperature
13 13 13 13 13 13 13 13 13 13 13 13 13 13 12 12 12 12 12 12 11 11 11 11 11 10 10 10 10 10 10 10 10 10 9 9 9 9 9 9 9 9 8
13 13 13 13 13 13 13 13 13 12 12 12 12 12 12 12 12 12 12 11 11 11 11 11 10 10 10 10 10 10 10 10 10 9 9 9 9 9 9 8 8 8 8
12 13 13 12 12 12 12 12 12 12 12 12 12 12 12 12 12 11 11 11 11 11 11 11 10 10 10 10 10 9 9 9 9 9 9 9 9 8 8 8 8 8 8
12 12 12 12 12 12 12 12 12 12 12 12 12 12 11 11 11 11 11 11 11 11 11 10 10 10 10 9 9 9 9 9 9 9 9 8 8 8 8 8 8 8 8
11 12 12 12 12 12 11 11 11 11 11 11 11 11 11 11 11 11 11 11 11 10 10 10 10 10 9 9 9 9 9 9 9 8 8 8 8 8 7 7 7 7 7
11 11 11 11 11 11 11 11 11 11 11 11 11 11 11 11 11 11 10 10 10 10 10 10 10 9 9 9 9 9 9 8 8 8 8 8 7 7 7 7 7 7 7
10 11 11 11 11 11 11 11 10 10 10 10 10 10 10 10 10 10 10 10 10 10 10 10 9 9 9 9 9 8 8 8 8 8 7 7 7 7 7 7 7 6 6
10 10 10 10 10 10 11 10 10 10 10 10 10 10 9 9 10 10 10 9 9 9 9 9 9 9 8 8 8 8 8 8 7 7 7 7 7 6 6 6 6 6 6
10 10 10 10 10 10 10 10 10 10 10 10 10 10 9 9 9 9 9 9 9 9 9 9 9 8 8 8 8 8 7 7 7 7 6 6 6 6 6 6 6 6 6
9 9 9 9 10 10 10 10 10 10 10 9 9 9 9 9 9 9 9 9 9 9 8 8 8 8 8 8 7 7 7 7 7 6 6 6 6 6 5 5 5 5 5
9 9 9 9 9 9 9 9 9 9 9 9 9 9 9 9 9 8 8 9 8 8 8 8 8 8 7 7 7 7 6 6 6 6 6 6 5 5 5 5 5 5 5
8 8 8 9 9 9 9 9 9 9 9 9 9 9 9 9 9 8 8 8 8 8 8 8 7 7 7 6 6 6 6 6 6 6 5 5 5 5 5 5 5 4 4
8 8 8 8 8 8 8 8 8 9 9 9 9 9 8 9 8 8 8 7 7 7 7 7 7 6 6 6 6 5 5 5 5 5 5 5 5 5 5 4 4 4 4
7 7 7 8 8 8 8 8 8 8 8 8 8 8 8 8 8 8 7 7 6 6 6 6 6 6 6 5 5 5 5 5 5 5 5 4 4 4 4 4 4 4 4
7 7 7 7 7 7 7 7 7 8 8 8 8 8 8 8 7 7 7 7 6 5 5 6 6 5 5 5 5 5 4 4 4 4 4 4 4 4 4 4 3 3 3
6 6 6 6 7 7 7 7 7 7 7 7 7 7 7 7 7 7 7 6 6 6 5 5 5 5 5 4 4 4 4 4 4 4 4 4 4 4 4 3 3 3 3
6 6 6 6 6 6 6 6 7 7 7 7 7 7 7 7 7 6 6 6 6 5 5 5 5 5 4 4 4 4 4 4 4 4 4 4 4 3 3 3 3 3 2
5 5 5 6 6 6 6 6 6 6 6 6 6 6 6 6 6 6 6 6 5 5 5 5 5 4 4 4 4 3 3 3 3 3 3 3 3 3 3 3 3 2 2
5 5 5 5 5 5 5 5 6 6 6 6 6 6 6 6 6 5 5 5 5 5 4 4 4 4 4 4 3 3 3 3 3 3 3 3 3 3 3 2 2 2 2
4 4 4 5 5 5 5 5 5 5 5 5 6 6 6 5 5 5 5 5 4 4 4 4 4 4 3 3 3 3 3 3 3 3 2 2 2 2 2 2 2 2 1
4 4 4 4 4 4 4 4 4 4 5 5 5 5 5 5 5 4 4 4 4 4 4 4 3 3 3 3 3 2 2 2 2 2 2 2 2 2 2 2 1 1 1
3 3 3 4 4 4 4 4 4 4 4 4 5 5 5 5 4 4 4 4 4 4 4 3 3 3 3 3 2 2 2 2 1 2 1 1 1 1 2 1 1 1 1
3 3 3 3 3 4 4 3 3 3 4 4 4 4 4 4 4 4 3 3 3 3 3 3 3 3 2 2 2 2 1 1 1 1 1 1 1 1 1 1 1 1 1
2 2 2 3 3 3 3 3 3 3 3 3 4 4 4 4 3 3 3 3 3 3 3 3 3 2 2 2 2 1 1 1 1 1 0 0 1 1 1 1 1 1 0
2 2 2 2 2 2 2 2 3 3 3 3 3 3 3 3 3 3 3 3 3 3 2 2 2 2 2 2 1 1 1 1 0 0 0 0 0 0 1 1 1 1 0
1 1 2 2 2 2 2 2 2 2 2 2 2 2 3 3 3 2 2 2 2 2 2 2 2 2 2 2 1 1 1 0 -0 -0 0 0 0 -0 -0 0 1 0 0
Wind_Speed
6 5 5 5 5 5 5 4 3 3 3 4 5 6 5 6 5 4 3 4 3 3 3 3 2 2 2 3 3 4 4 5 5 6 6 7 7 8 9 9 9 10 10
6 6 5 5 5 6 6 5 4 3 3 3 3 5 5 6 5 5 4 3 3 3 3 2 2 2 2 2 3 3 4 4 5 5 6 7 8 8 9 9 10 10 11
8 6 5 5 5 7 6 5 4 3 2 2 2 3 4 5 5 5 4 3 3 2 2 2 2 1 1 2 2 3 4 4 5 6 6 7 8 9 9 10 10 10 11
9 6 5 5 6 6 6 4 3 2 2 2 1 2 2 4 4 4 4 4 3 2 2 3 2 1 0 1 2 2 3 4 5 6 7 8 8 9 10 10 11 11 11
8 6 5 5 6 5 4 4 3 3 2 2 2 2 2 2 3 3 3 3 4 3 3 3 2 1 0 1 2 3 4 5 5 6 7 7 8 9 10 10 11 12 12
7 6 5 5 6 4 4 4 4 2 2 2 2 1 1 1 2 2 3 2 3 4 3 3 2 2 1 2 3 3 4 5 5 6 7 8 8 9 10 11 11 12 13
6 6 4 4 4 4 5 5 3 3 2 2 2 0 1 1 2 2 2 2 2 3 3 3 3 2 1 2 3 4 5 6 6 7 7 8 9 10 11 11 12 13 13
6 6 5 4 4 4 5 5 5 3 2 2 3 2 1 1 1 1 2 2 3 2 2 3 3 2 1 1 3 4 5 6 6 7 8 9 10 10 11 11 12 13 13
5 5 5 4 4 4 5 6 7 6 5 3 3 4 3 3 2 1 1 2 3 2 2 2 2 2 2 1 2 2 4 6 7 8 9 9 10 11 11 12 12 13 13
4 4 5 5 4 4 5 6 5 5 6 5 3 2 2 3 2 1 1 1 2 2 2 2 2 2 2 1 1 2 4 6 7 8 9 10 11 11 12 12 13 13 13
3 4 5 4 4 4 4 4 4 5 5 6 4 3 2 1 2 2 2 2 1 1 2 2 2 2 2 1 1 2 4 6 8 9 10 11 11 12 12 13 13 13 13
1 2 4 4 4 3 4 4 4 5 4 4 3 3 3 3 3 3 3 3 2 2 1 1 2 2 2 1 1 3 5 6 8 9 10 11 11 11 12 13 13 13 14
2 2 3 3 3 3 4 3 3 4 5 5 4 3 3 3 3 3 3 2 1 1 1 1 1 2 2 1 1 3 5 6 8 9 10 10 11 11 12 12 13 13 14
3 3 3 3 4 4 4 3 3 4 4 5 5 4 3 2 3 3 3 3 1 1 1 2 1 1 1 2 2 3 4 6 8 9 9 9 9 10 11 12 12 13 13
3 3 3 3 4 4 4 3 3 4 4 4 4 4 3 2 2 2 3 4 4 2 3 2 1 2 1 1 3 3 4 6 8 8 9 8 9 10 11 11 12 12 12
3 3 3 3 4 4 4 4 3 4 4 4 3 4 3 2 3 3 3 2 3 4 3 2 2 2 2 2 3 3 4 7 7 8 9 9 9 10 10 11 11 12 12
2 3 3 3 4 4 4 4 4 4 4 4 3 4 3 3 2 3 3 2 3 3 3 2 2 2 2 2 2 3 4 5 6 8 9 9 9 10 10 10 11 11 12
2 3 3 3 4 4 4 5 5 4 5 5 4 4 3 3 2 2 3 3 3 3 3 3 2 2 2 2 2 2 4 5 5 7 9 9 9 9 9 10 11 11 11
1 1 2 2 3 4 4 5 4 4 4 5 5 5 4 4 3 2 3 3 3 2 2 2 2 2 2 1 1 3 3 3 4 6 7 7 8 8 10 10 10 11 11
1 1 2 2 2 3 3 4 4 4 4 4 4 4 4 5 5 4 4 4 3 3 2 2 2 2 2 2 1 2 3 3 4 5 6 7 7 9 10 9 10 10 11
1 1 1 1 1 1 2 3 4 4 4 3 3 3 3 4 5 4 4 4 4 3 3 2 2 2 2 2 2 2 3 3 4 3 3 4 5 5 6 8 9 10 11
1 1 1 1 1 1 1 3 4 4 3 3 3 2 2 3 4 4 5 4 4 5 4 3 3 3 4 3 2 2 2 3 3 2 3 4 3 4 5 5 9 11 11
2 1 1 1 1 1 1 3 3 3 3 3 3 3 2 2 2 2 2 2 3 4 5 5 4 5 4 4 3 3 3 3 4 3 4 5 3 4 5 7 9 10 11
1 1 1 1 1 1 1 1 2 2 3 3 4 4 3 3 3 3 2 2 2 2 3 3 4 4 4 4 4 3 3 2 3 3 2 4 4 4 6 6 9 9 11
1 1 1 1 1 2 1 1 2 2 2 2 3 3 3 4 4 3 3 2 1 2 2 2 3 2 3 3 2 1 1 2 4 3 1 1 2 4 4 4 6 9 10
1 1 1 1 1 1 2 1 1 2 2 2 2 2 4 4 4 4 3 3 3 2 1 1 1 1 0 1 2 2 2 2 3 3 2 1 2 3 3 3 3 5 7
Wind_Direction
161 158 151 152 155 152 146 142 137 140 135 137 141 137 135 129 127 119 110 125 128 136 149 146 127 102 75 56 47 43 33 24 18 9 5 0 353 348 344 343 341 337 333
164 161 156 160 162 159 155 151 149 147 148 140 146 144 143 139 136 136 125 130 127 134 154 158 146 111 71 53 47 39 28 13 6 360 356 354 352 347 341 339 336 335 333
165 165 166 170 168 159 150 141 137 128 145 143 152 151 145 145 146 150 146 143 145 151 165 173 163 128 63 39 33 26 17 3 358 353 352 350 346 343 340 337 334 332 330
167 163 169 173 165 155 151 154 156 149 162 162 168 169 144 147 157 162 159 163 165 170 184 186 180 155 79 23 18 10 0 354 352 351 350 347 343 340 338 335 332 329 328
168 161 169 170 162 155 160 171 165 160 164 166 171 171 159 161 170 169 166 175 176 179 185 192 188 180 322 357 349 348 346 347 344 343 340 338 336 335 334 332 330 330 329
171 161 161 167 163 166 173 172 165 155 166 174 165 162 196 212 186 185 183 175 175 182 186 187 190 205 238 337 340 336 335 335 334 334 332 331 332 331 330 329 329 328 328
171 164 164 166 172 183 183 170 163 155 170 161 136 103 335 275 225 217 192 175 173 186 183 182 189 200 241 302 323 329 330 328 326 325 327 329 327 327 328 329 329 329 328
174 173 169 171 174 177 178 175 170 172 188 183 163 153 206 299 275 237 214 201 190 186 184 185 183 194 216 281 301 318 323 323 320 322 326 325 323 326 328 329 329 330 328
175 171 171 170 173 179 186 189 181 181 191 209 191 168 170 216 250 276 234 215 195 189 199 193 193 204 223 252 278 311 328 326 322 322 322 323 324 324 325 328 330 330 329
173 173 172 174 178 184 191 195 191 188 182 194 205 206 180 159 165 239 282 260 222 203 214 209 192 209 225 235 266 322 336 330 328 328 328 327 326 325 327 328 329 330 330
176 176 175 176 185 191 195 193 185 189 190 191 192 183 168 134 161 180 231 260 287 242 223 208 196 210 221 220 254 321 340 337 333 332 330 328 327 327 328 329 329 328 328
196 184 177 179 187 194 196 194 194 193 192 187 188 179 176 174 182 180 206 221 245 267 250 225 205 204 201 204 273 331 336 337 336 333 330 328 327 326 326 327 327 325 327
220 218 204 196 197 198 196 191 190 198 191 182 184 186 188 195 183 173 174 202 241 285 304 277 231 190 187 204 287 319 325 329 332 330 328 325 325 324 325 324 325 324 326
216 215 212 208 201 193 196 195 199 207 194 189 189 185 185 196 183 178 176 168 187 290 284 260 272 204 199 225 280 309 312 318 324 322 324 326 326 325 323 323 323 323 325
226 211 211 215 206 198 197 198 212 210 192 191 190 188 188 195 179 183 179 175 169 208 246 251 246 230 234 265 282 291 299 309 317 319 324 326 326 325 325 325 324 326 328
234 219 216 216 213 203 197 198 216 205 187 191 188 185 190 188 178 179 188 189 177 184 225 249 254 250 262 278 289 298 298 307 313 316 318 319 320 323 325 324 323 327 329
226 226 222 216 217 209 201 202 212 194 186 184 184 185 193 183 179 183 183 184 182 176 213 269 271 259 254 258 291 296 300 296 299 309 313 314 318 322 321 323 326 326 328
228 230 225 219 220 213 202 205 210 198 192 189 190 186 194 178 180 189 186 189 191 189 188 234 273 265 254 245 263 289 302 301 299 305 311 312 316 321 324 326 325 327 329
263 250 233 233 227 216 208 211 208 201 196 194 192 192 192 174 193 195 192 195 195 190 183 202 253 270 277 264 288 301 306 304 305 310 318 318 319 322 323 324 327 329 330
265 256 263 258 245 228 214 209 199 198 195 199 196 194 195 194 201 200 200 199 187 182 182 199 234 258 275 270 264 293 313 315 316 317 314 315 315 319 322 326 328 328 329
287 259 264 288 271 244 219 199 193 193 191 196 197 199 204 207 206 205 206 200 188 188 189 204 232 258 269 266 265 272 293 309 310 305 308 312 316 321 323 322 324 325 326
323 305 272 279 275 263 229 196 190 188 186 189 196 200 213 201 205 218 223 219 204 194 199 210 229 237 250 253 257 262 284 305 302 310 314 304 312 308 314 320 320 323 324
349 338 311 288 281 290 260 201 189 184 182 191 195 192 207 210 204 202 223 244 247 246 225 211 222 233 235 233 236 258 269 282 284 293 305 295 302 299 307 312 318 323 328
338 315 316 309 311 302 303 177 175 183 185 196 202 198 200 209 206 189 192 213 253 272 259 238 220 230 231 227 228 243 259 294 302 294 289 288 299 297 304 311 312 321 327
331 321 322 322 316 307 320 218 170 177 186 203 209 200 198 206 206 187 177 185 236 301 317 286 271 255 247 239 224 192 246 297 306 301 279 271 295 305 298 296 312 322 328
336 327 333 332 306 285 318 273 193 170 180 200 207 209 209 205 200 192 185 184 209 249 249 10 7 6 11 223 272 229 212 244 287 285 255 276 297 322 312 295 307 323 330
Height
1509 1511 1512 1514 1515 1516 1517 1518 1520 1521 1522 1522 1523 1524 1524 1525 1526 1526 1527 1527 1527 1527 1527 1527 1527 1527 1526 1526 1525 1524 1522 1521 1520 1519 1518 1516 1515 1513 1512 1510 1508 1506 1505
1506 1507 1509 1511 1512 1514 1515 1516 1518 1519 1520 1520 1521 1522 1522 1523 1524 1524 1525 1525 1526 1526 1526 1526 1525 1525 1525 1524 1523 1522 1521 1520 1519 1517 1516 1514 1513 1511 1509 1508 1506 1504 1502
1504 1506 1506 1508 1510 1511 1512 1514 1515 1516 1517 1518 1519 1520 1520 1521 1522 1523 1523 1523 1524 1524 1524 1524 1524 1523 1523 1522 1522 1520 1519 1518 1517 1516 1514 1512 1511 1509 1507 1505 1503 1501 1499
1502 1503 1503 1505 1507 1508 1510 1511 1512 1513 1515 1516 1517 1517 1518 1519 1520 1520 1521 1521 1521 1522 1522 1522 1522 1521 1521 1521 1520 1519 1518 1516 1515 1514 1512 1510 1509 1507 1505 1503 1501 1499 1497
1499 1500 1501 1502 1504 1505 1507 1509 1510 1511 1512 1513 1514 1515 1516 1516 1517 1518 1518 1519 1519 1519 1519 1520 1520 1519 1519 1519 1518 1517 1516 1515 1513 1512 1510 1508 1506 1504 1503 1501 1499 1496 1494
1496 1498 1499 1499 1501 1502 1504 1505 1507 1508 1509 1510 1511 1512 1513 1514 1514 1515 1516 1516 1517 1517 1517 1517 1517 1517 1517 1516 1515 1514 1513 1512 1511 1509 1507 1505 1504 1502 1500 1498 1496 1493 1491
1493 1494 1496 1497 1498 1499 1501 1502 1503 1505 1506 1507 1509 1510 1510 1511 1512 1512 1513 1513 1514 1514 1514 1515 1515 1515 1514 1514 1513 1512 1511 1510 1508 1507 1505 1503 1501 1499 1497 1495 1493 1490 1488
1489 1491 1492 1493 1494 1496 1497 1498 1500 1501 1503 1504 1505 1506 1507 1509 1508 1509 1510 1510 1511 1511 1511 1512 1512 1512 1512 1511 1510 1509 1508 1507 1505 1504 1502 1500 1499 1497 1494 1492 1490 1487 1485
1486 1487 1489 1490 1491 1493 1494 1495 1496 1498 1499 1501 1502 1503 1504 1503 1505 1506 1507 1508 1508 1508 1508 1509 1509 1509 1509 1508 1507 1506 1505 1503 1502 1501 1499 1497 1496 1494 1491 1489 1486 1484 1481
1482 1483 1485 1487 1488 1489 1491 1492 1493 1494 1496 1497 1498 1500 1501 1501 1502 1502 1504 1504 1505 1505 1505 1506 1506 1506 1506 1505 1505 1503 1502 1501 1499 1498 1496 1494 1492 1490 1488 1486 1483 1481 1478
1478 1480 1482 1483 1485 1486 1487 1488 1489 1490 1492 1493 1494 1495 1496 1497 1498 1499 1499 1501 1501 1502 1502 1502 1503 1503 1503 1502 1502 1501 1499 1498 1496 1494 1493 1491 1489 1486 1484 1482 1479 1477 1474
1475 1477 1478 1480 1481 1482 1483 1484 1486 1487 1488 1489 1490 1492 1493 1493 1494 1495 1496 1496 1497 1498 1499 1499 1499 1499 1499 1499 1498 1498 1496 1495 1493 1491 1489 1487 1485 1483 1480 1478 1475 1473 1470
1471 1472 1474 1476 1477 1478 1479 1480 1482 1483 1484 1486 1487 1488 1489 1490 1491 1492 1493 1493 1493 1494 1495 1495 1496 1496 1496 1496 1495 1494 1493 1491 1490 1488 1486 1484 1482 1479 1477 1474 1472 1469 1467
1468 1469 1471 1472 1473 1474 1475 1477 1478 1480 1481 1482 1484 1485 1485 1487 1488 1489 1489 1490 1490 1490 1491 1492 1492 1492 1493 1492 1492 1491 1489 1488 1486 1484 1483 1481 1478 1476 1473 1470 1468 1465 1463
1465 1466 1467 1468 1469 1470 1472 1473 1474 1476 1477 1479 1480 1481 1482 1483 1484 1485 1487 1487 1488 1487 1487 1488 1489 1489 1489 1489 1488 1487 1486 1484 1483 1481 1479 1477 1475 1472 1469 1467 1464 1462 1459
1462 1463 1464 1465 1466 1467 1468 1470 1471 1472 1474 1475 1477 1478 1478 1479 1480 1482 1483 1484 1485 1485 1484 1484 1485 1485 1485 1485 1485 1484 1483 1481 1479 1477 1475 1473 1471 1468 1465 1463 1460 1458 1455
1458 1459 1460 1461 1462 1464 1465 1466 1467 1469 1470 1471 1473 1474 1475 1476 1477 1478 1480 1480 1481 1482 1481 1481 1482 1482 1482 1481 1481 1480 1479 1477 1476 1474 1472 1469 1467 1465 1462 1459 1457 1454 1452
1455 1456 1457 1458 1459 1460 1461 1462 1463 1465 1466 1467 1469 1470 1472 1473 1474 1475 1476 1477 1477 1478 1478 1477 1478 1478 1478 1478 1477 1476 1475 1474 1472 1470 1468 1466 1463 1461 1458 1456 1453 1451 1448
1452 1453 1454 1454 1455 1456 1457 1458 1460 1461 1462 1464 1466 1467 1468 1469 1470 1471 1472 1473 1474 1475 1475 1475 1474 1474 1474 1474 1473 1472 1471 1470 1468 1466 1464 1462 1460 1458 1455 1453 1450 1447 1445
1450 1450 1451 1451 1452 1453 1453 1454 1456 1458 1459 1461 1463 1464 1465 1467 1468 1468 1469 1470 1470 1471 1471 1471 1471 1470 1470 1470 1469 1467 1466 1465 1464 1463 1461 1459 1457 1454 1452 1449 1447 1444 1441
1448 1448 1449 1449 1449 1449 1450 1451 1453 1455 1456 1458 1459 1461 1462 1464 1464 1465 1466 1466 1467 1467 1467 1467 1467 1466 1466 1465 1465 1464 1462 1461 1460 1459 1457 1456 1453 1451 1449 1446 1444 1441 1438
1446 1446 1446 1446 1447 1447 1447 1448 1450 1452 1453 1454 1456 1457 1458 1460 1461 1462 1462 1463 1463 1463 1463 1463 1463 1462 1462 1462 1461 1460 1459 1457 1455 1455 1454 1452 1450 1448 1446 1443 1441 1438 1435
1444 1444 1444 1444 1444 1444 1445 1446 1448 1449 1450 1451 1453 1454 1455 1456 1457 1458 1458 1459 1460 1460 1461 1461 1460 1459 1459 1459 1458 1457 1456 1455 1453 1452 1451 1448 1447 1444 1442 1440 1438 1436 1433
1441 1441 1441 1442 1442 1442 1443 1444 1445 1446 1447 1448 1449 1450 1451 1452 1453 1454 1455 1455 1456 1456 1457 1457 1457 1456 1456 1456 1455 1455 1453 1452 1451 1450 1449 1445 1443 1441 1439 1438 1435 1433 1430
1439 1439 1439 1439 1439 1440 1440 1441 1442 1443 1444 1445 1446 1447 1448 1449 1450 1451 1452 1452 1452 1453 1453 1454 1454 1453 1452 1452 1452 1451 1450 1449 1447 1446 1446 1444 1441 1438 1436 1434 1433 1431 1428
1437 1437 1437 1437 1437 1438 1438 1439 1440 1440 1441 1442 1443 1444 1446 1446 1447 1448 1449 1448 1449 1449 1449 1449 1450 1449 1449 1449 1449 1449 1448 1446 1445 1444 1442 1441 1439 1437 1433 1431 1430 1428 1426